Regional Weather Roundup
Issued by NWS

Home | Current Version | Previous Version | Graphics & Text | Print | Product List | Glossary Off
Versions: 1 2 3 4 5 6 7 8 9 10 11 12 13 14 15 16 17 18 19 20 21 22 23 24 25 26 27 28 29 30 31 32 33 34 35 36 37 38 39 40 41 42 43 44 45 46 47 48 49 50

000
ASUS43 KFSD 211902
RWRSD

WEATHER ROUNDUP FOR SOUTH DAKOTA
NATIONAL WEATHER SERVICE SIOUX FALLS SD
200 PM CDT MON AUG 21 2017

NOTE: "FAIR" INDICATES FEW OR NO CLOUDS BELOW 12,000 FEET WITH NO
SIGNIFICANT WEATHER AND/OR OBSTRUCTIONS TO VISIBILITY.


SDZ001>005-009-010-012>017-212000-
NORTHWEST AND NORTH CENTRAL SOUTH DAKOTA

CITY           SKY/WX    TMP DP  RH WIND       PRES   REMARKS
BUFFALO          N/A     76  37  24 N17G28    30.06R
FAITH            N/A     73  59  61 NW13      30.06R
$$

SDZ012>016-024>037-041>051-057-063-072>074-212000-
SOUTHWEST AND SOUTH CENTRAL SOUTH DAKOTA

CITY           SKY/WX    TMP DP  RH WIND       PRES   REMARKS
RAPID CTY ARPT SUNNY     71  46  40 N16G23    30.11R
PIERRE         CLOUDY    67  63  87 NW9       29.97S
CUSTER         CLOUDY    67  37  33 N7G16     30.22R
ELLSWORTH AFB  MOSUNNY   73  46  37 N16G24    30.11R
PHILIP         MOSUNNY   75  63  66 NW14G21   30.02R
PINE RIDGE     SUNNY     75  61  61 N12       30.09R
SPEARFISH      FAIR      70  43  37 VRB6      30.18R
WINNER         FAIR      68  65  90 NW9       29.97R
$$

SDZ004>011-016>023-039-040-212000-
NORTHEAST SOUTH DAKOTA

CITY           SKY/WX    TMP DP  RH WIND       PRES   REMARKS
ABERDEEN       CLOUDY    64  59  83 SW5       29.94S
WATERTOWN      CLOUDY    65  64  97 NW9       29.92R
BROOKINGS      LGT RAIN  66  65  96 S13       29.91F
SISSETON         N/A     68  64  87 VRB5      29.89F
$$

SDZ017-020-022-023-036>040-048>070-212000-
SOUTHEAST SOUTH DAKOTA

CITY           SKY/WX    TMP DP  RH WIND       PRES   REMARKS
SIOUX FALLS    TSTM      68  67  96 E13       29.96S VSB 3/4
HURON          CLOUDY    67  64  90 N14       29.88R
CHAMBERLAIN    CLOUDY    71  69  93 SW8       29.95R
MITCHELL       CLOUDY    69  65  86 SE23G39   29.75F
YANKTON        TSTM      61  60  97 NW12G21   29.99R
$$

ABBREVIATIONS USED IN REMARKS
   TC - TEMPERATURE IN CELSIUS
  WCI - WIND CHILL INDEX
   HX - HEAT INDEX
  VSB - VISIBILITY





USA.gov is the U.S. government's official web portal to all federal, state and local government web resources and services.